Location: Colebrook
(42.0017°N, 73.0973°W)
Time: 22:08:53
(UTC-04:00)

Envisat - Pass Details

Date: 01 October 2021
Orbit: 764 x 766 km, 98.2° (Epoch: 22 October)

Event Time Altitude Azimuth Distance (km) Brightness Sun altitude
Rises 04:36:28 0° 34° (NE) 3,238 7.1 -25.2°
Reaches altitude 10° 04:40:13 10° 63° (ENE) 2,305 6.5 -24.5°
Maximum altitude 04:42:25 13° 89° (E) 2,114 6.2 -24.1°
Drops below altitude 10° 04:44:37 10° 115° (ESE) 2,297 6.1 -23.7°
Sets 04:48:20 0° 143° (SE) 3,216 6.5 -23.1°
